sat.trackr.live / text

‹ back to catalog

STARLINK-34564

NORAD 64852 · 2025-152L

PAYLOAD ACTIVE UNKNOWN

§ Identity

Operator
Country
US
Launch date
2025-07-19
Launch site
AFWTR
Launch vehicle
Mass (kg)
RCS (m²)

Purposes: comms

External: N2YO · Heavens-Above · Gunter

§ Orbital elements

Epoch: 2026-09-20T12:54:06.083424Z

Period
93.91 min
Inclination
97.2832°
Eccentricity
0.0002140
Mean motion
15.33450002 rev/d
Perigee alt
464.1 km
Apogee alt
467.0 km
Semi-major
6,843.7 km
B*
3.4458e-4
RAAN
114.1540°
Arg perigee
86.6499°
Mean anomaly
273.4988°
Rev number
6,483

§ Raw data

STARLINK-345641 64852U 25152L   26263.53757041  .00011068  00000+0  34458-3 0  99932 64852  97.2832 114.1540 0002140  86.6499 273.4988 15.33450002 64838

JSON: /api/v1/satellites/64852 · /tle

For live sub-satellite position, see the globe view (requires WebGL).

§ Visibility from observer

Set your observer location to see the next 7 days of passes ≥ 10°. The values pass through the URL so the page stays shareable.

No JS? Fill the form by hand. The geolocation button needs JavaScript.